Stations météo

réclame
Mon MeteoGroup
Glasgow/Bishopton, Grande-Bretagne (3134): Température de l'air & dewpoint: 18.10.2018 06:00:00 - 24.10.2018 06:00:00 (BST)Glasgow/Bishopton, Grande-Bretagne (3134): Température de l'air -20cm & Température de l'air -100cm: 18.10.2018 06:00:00 - 24.10.2018 06:00:00 (BST)Glasgow/Bishopton, Grande-Bretagne (3134): Vitesse du vent & gusts: 18.10.2018 06:00:00 - 24.10.2018 06:00:00 (BST)Glasgow/Bishopton, Grande-Bretagne (3134): Direction du vent: 18.10.2018 06:00:00 - 24.10.2018 06:00:00 (BST)Glasgow/Bishopton, Grande-Bretagne (3134): reduced air pressure: 18.10.2018 06:00:00 - 24.10.2018 06:00:00 (BST)Glasgow/Bishopton, Grande-Bretagne (3134): visibility: 18.10.2018 06:00:00 - 24.10.2018 06:00:00 (BST)Glasgow/Bishopton, Grande-Bretagne (3134): Ensoleillement: 18.10.2018 06:00:00 - 24.10.2018 06:00:00 (BST)Glasgow/Bishopton, Grande-Bretagne (3134): Quantités de précipitations: 18.10.2018 06:00:00 - 24.10.2018 06:00:00 (BST)
Date & Time tt [°C] td [°C] tt -20cm [°C] tt -100cm [°C] ff [km/h] ff [knt] fx [km/h] fx [knt] dd ppp [hPa] vv [km] sd [min] rr [mm]
24.10.2018 06:00:00 10,8 8,6 - - 18 10 48 26 NW 1027,4 50 0 0,0
24.10.2018 05:00:00 10,9 8,6 - - 31 17 50 27 WNW 1027,0 50 0 0,0
24.10.2018 04:00:00 11,0 9,3 - - 28 15 - - NW 1027,9 11 0 0,0
24.10.2018 03:00:00 11,2 9,7 - - 11 6 - - WNW 1028,1 24 0 0,0
24.10.2018 02:00:00 11,4 9,8 - - 5 3 - - WSW 1028,0 35 0 0,0
24.10.2018 01:00:00 11,4 10,0 - - 11 6 - - NW 1028,3 50 - 0,0
24.10.2018 00:00:00 11,4 10,1 - - 8 4 - - SW 1028,5 30 0 0,0
23.10.2018 23:00:00 11,2 10,3 - - 21 11 - - W 1028,1 9 0 0,0
23.10.2018 22:00:00 11,4 10,6 - - 28 15 54 29 W 1027,3 6 0 0,4
23.10.2018 21:00:00 11,7 10,8 - - 29 16 52 28 W 1027,1 4,7 0 0,4
23.10.2018 20:00:00 12,2 11,0 - - 28 15 - - W 1027,2 8 0 0,0
23.10.2018 19:00:00 12,2 10,8 - - 24 13 - - W 1026,8 40 0 0,0
23.10.2018 18:00:00 12,1 10,7 - - 21 11 - - W 1026,4 45 0 0,0
23.10.2018 17:00:00 12,3 10,7 - - 28 15 50 27 W 1026,2 23 0 0,0
23.10.2018 16:00:00 12,2 10,9 - - 28 15 - - W 1026,0 10 0 0,0
23.10.2018 15:00:00 12,5 10,7 - - 29 16 50 27 W 1026,1 16 12 0,0
23.10.2018 14:00:00 12,8 10,7 - - 29 16 48 26 WNW 1026,0 35 18 0,0
23.10.2018 13:00:00 12,1 10,8 - - 26 14 - - WNW 1026,4 9 0 0,0
23.10.2018 12:00:00 12,0 10,8 - - 26 14 - - W 1026,5 16 0 0,0
23.10.2018 11:00:00 11,4 10,4 - - 26 14 - - W 1026,3 9 0 0,2
23.10.2018 10:00:00 10,7 10,1 11,2 11,9 21 11 - - W 1026,3 4,6 0 0,0
23.10.2018 09:00:00 10,2 9,6 - - 18 10 - - W 1026,6 6 0 1,2
23.10.2018 08:00:00 9,9 9,2 - - 24 13 48 26 W 1026,3 3,3 0 0,4
23.10.2018 07:00:00 11,0 7,8 - - 28 15 52 28 W 1025,9 6 0 0,0
23.10.2018 06:00:00 11,1 7,3 - - 35 19 65 35 W 1026,1 10 0 0,0
23.10.2018 05:00:00 11,0 7,2 - - 34 18 55 30 W 1026,7 9 0 0,0
23.10.2018 04:00:00 11,2 7,5 - - 31 17 61 33 W 1027,1 10 0 0,0
23.10.2018 03:00:00 10,8 8,1 - - 28 15 57 31 W 1027,8 5 0 0,0
23.10.2018 02:00:00 10,9 7,7 - - 34 18 55 30 W 1027,8 9 0 0,0
23.10.2018 01:00:00 10,7 7,8 - - 31 17 67 36 W 1028,4 8 - 0,0
23.10.2018 00:00:00 10,9 7,5 - - 28 15 57 31 W 1028,9 11 0 0,0
22.10.2018 23:00:00 10,7 7,5 - - 24 13 46 25 W 1029,6 11 0 0,0
22.10.2018 22:00:00 10,8 7,6 - - 26 14 - - W 1030,6 9 0 0,0
22.10.2018 21:00:00 10,9 7,5 - - 26 14 46 25 W 1031,2 11 0 0,0
22.10.2018 20:00:00 10,8 7,3 - - 28 15 57 31 W 1031,8 12 0 0,2
22.10.2018 19:00:00 10,6 7,0 - - 28 15 50 27 W 1031,6 12 0 0,0
22.10.2018 18:00:00 10,6 7,0 - - 24 13 50 27 W 1032,4 10 0 0,0
22.10.2018 17:00:00 10,8 7,1 - - 31 17 52 28 W 1032,7 15 0 0,0
22.10.2018 16:00:00 10,2 8,1 - - 29 16 46 25 W 1033,4 20 0 0,0
22.10.2018 15:00:00 10,0 8,5 - - 26 14 - - W 1033,8 30 0 0,2
22.10.2018 14:00:00 10,1 7,5 - - 24 13 - - W 1034,8 4,8 6 0,0
22.10.2018 13:00:00 10,7 7,1 - - 22 12 - - W 1035,1 6 0 0,0
22.10.2018 12:00:00 10,5 6,5 - - 21 11 - - WSW 1035,4 18 0 0,0
22.10.2018 11:00:00 10,2 7,5 - - 16 9 - - W 1035,9 14 12 0,0
22.10.2018 10:00:00 8,2 6,4 11,5 11,9 13 7 - - WSW 1035,8 17 6 0,0
22.10.2018 09:00:00 7,7 5,8 - - 15 8 - - W 1034,8 19 0 0,0
22.10.2018 08:00:00 7,6 6,0 - - 15 8 - - W 1034,8 5 0 0,2
22.10.2018 07:00:00 7,4 4,7 - - 13 7 - - W 1034,2 22 0 0,0
22.10.2018 06:00:00 7,1 3,8 - - 13 7 - - W 1033,7 19 0 0,0
22.10.2018 05:00:00 8,0 3,8 - - 16 9 - - W 1033,4 24 0 0,0
22.10.2018 04:00:00 8,0 3,4 - - 16 9 - - W 1032,8 13 0 0,0
22.10.2018 03:00:00 8,2 2,8 - - 16 9 - - WNW 1032,5 12 0 0,0
22.10.2018 02:00:00 7,8 2,9 - - 21 11 - - W 1031,9 16 0 0,0
22.10.2018 01:00:00 7,9 4,3 - - 21 11 67 36 W 1031,7 22 - 0,0
22.10.2018 00:00:00 8,8 3,7 - - 22 12 - - WNW 1031,1 20 0 0,0
21.10.2018 23:00:00 8,3 3,1 - - 18 10 - - WNW 1030,4 17 0 0,0
21.10.2018 22:00:00 8,6 3,7 - - 24 13 - - W 1029,6 25 0 0,0
21.10.2018 21:00:00 8,9 4,1 - - 26 14 50 27 WNW 1029,4 26 0 0,0
21.10.2018 20:00:00 9,1 3,8 - - 26 14 - - WNW 1028,8 22 0 0,0
21.10.2018 19:00:00 9,2 3,2 - - 28 15 - - WNW 1028,1 21 0 0,0
21.10.2018 18:00:00 9,6 4,1 - - 26 14 - - WNW 1027,4 20 0 0,0
21.10.2018 17:00:00 10,3 4,0 - - 26 14 48 26 WNW 1026,5 19 6 0,0
21.10.2018 16:00:00 10,8 4,9 - - 28 15 50 27 WNW 1025,3 19 30 0,0
21.10.2018 15:00:00 11,4 6,5 - - 29 16 46 25 WNW 1024,6 35 18 0,0
21.10.2018 14:00:00 12,4 9,2 - - 16 9 - - WNW 1024,2 40 18 0,0
21.10.2018 13:00:00 10,3 8,9 - - 16 9 - - W 1023,9 29 0 0,4
21.10.2018 12:00:00 10,5 8,1 - - 15 8 - - W 1023,8 40 0 0,0
21.10.2018 11:00:00 10,6 7,5 - - 26 14 - - WNW 1022,7 21 0 0,0
21.10.2018 10:00:00 11,0 8,9 11,7 11,9 31 17 52 28 WNW 1021,7 50 0 0,0
21.10.2018 09:00:00 11,4 10,7 - - 31 17 - - WNW 1020,7 3,6 0 1,0
21.10.2018 08:00:00 13,6 13,3 - - 22 12 - - SW 1019,8 2,2 0 0,0
21.10.2018 07:00:00 13,7 13,2 - - 26 14 - - SW 1019,8 4,1 0 0,0
21.10.2018 06:00:00 14,1 13,4 - - 24 13 - - WSW 1020,0 12 0 0,0
21.10.2018 05:00:00 14,2 13,5 - - 24 13 46 25 WSW 1020,7 21 0 0,0
21.10.2018 04:00:00 13,9 13,2 - - 29 16 - - SW 1021,0 12 0 0,0
21.10.2018 03:00:00 13,9 13,1 - - 26 14 - - SW 1021,8 13 0 0,0
21.10.2018 02:00:00 13,6 13,0 - - 18 10 - - SW 1022,6 14 0 0,0
21.10.2018 01:00:00 13,7 13,0 - - 18 10 - - SW 1023,3 5 - 0,0
21.10.2018 00:00:00 13,8 13,0 - - 22 12 - - SW 1023,7 11 0 0,0
20.10.2018 23:00:00 13,9 13,0 - - 15 8 - - SW 1024,2 11 0 0,0
20.10.2018 22:00:00 13,9 12,9 - - 21 11 - - SSW 1024,5 15 0 0,0
20.10.2018 21:00:00 13,6 12,7 - - 13 7 - - SSW 1024,7 15 0 0,0
20.10.2018 20:00:00 13,5 12,5 - - 16 9 - - SSW 1025,0 15 0 0,0
20.10.2018 19:00:00 13,4 12,3 - - 24 13 - - SSW 1024,7 17 0 0,0
20.10.2018 18:00:00 13,2 12,3 - - 16 9 - - SSW 1024,6 15 0 0,0
20.10.2018 17:00:00 12,9 12,2 - - 21 11 - - SW 1024,5 13 0 0,0
20.10.2018 16:00:00 12,9 12,2 - - 16 9 - - SW 1024,7 17 0 0,0
20.10.2018 15:00:00 12,9 12,2 - - 16 9 - - SSW 1024,8 23 0 0,2
20.10.2018 14:00:00 12,9 12,0 - - 13 7 - - SSW 1025,1 4,7 0 0,0
20.10.2018 13:00:00 13,2 12,0 - - 15 8 - - SSW 1025,2 21 0 0,0
20.10.2018 12:00:00 13,6 12,1 - - 18 10 - - SW 1025,2 17 0 0,0
20.10.2018 11:00:00 13,7 12,3 - - 21 11 - - SW 1025,1 24 0 -
20.10.2018 10:00:00 12,6 11,9 11,2 12,0 15 8 - - SW 1024,9 7 0 0,0
20.10.2018 09:00:00 12,2 11,6 - - 22 12 - - SW 1024,2 9 0 0,0
20.10.2018 08:00:00 12,2 11,3 - - 21 11 - - SW 1024,1 10 0 0,0
20.10.2018 07:00:00 12,2 11,4 - - 18 10 - - SW 1023,9 11 0 0,0
20.10.2018 06:00:00 12,0 11,6 - - 18 10 - - SW 1024,0 13 0 0,0
20.10.2018 05:00:00 11,6 11,5 - - 15 8 - - SW 1024,4 3,7 0 0,0
20.10.2018 04:00:00 9,4 9,4 - - 8 4 - - S 1024,5 3,3 0 0,0
20.10.2018 03:00:00 8,1 7,9 - - 4 2 - - S 1024,8 2,5 0 0,2
20.10.2018 02:00:00 8,1 7,6 - - 2 1 - - ESE 1025,3 2,5 0 0,0
20.10.2018 01:00:00 7,8 7,2 - - 8 4 - - ESE 1025,4 6 - 0,0
20.10.2018 00:00:00 7,0 6,3 - - 5 3 - - SSE 1025,4 11 0 0,0
19.10.2018 23:00:00 6,9 6,0 - - 5 3 - - ESE 1025,5 12 0 0,0
19.10.2018 22:00:00 7,1 6,0 - - 5 3 - - SSW 1025,3 14 0 0,0
19.10.2018 21:00:00 8,0 6,2 - - 9 5 - - W 1025,2 14 0 0,0
19.10.2018 20:00:00 8,6 6,6 - - 8 4 - - WSW 1024,4 14 0 0,0
19.10.2018 19:00:00 8,7 5,8 - - 5 3 - - SSW 1023,8 14 0 0,0
19.10.2018 18:00:00 9,5 6,0 - - 5 3 - - W 1023,0 16 0 0,0
19.10.2018 17:00:00 11,4 6,5 - - 16 9 - - WNW 1022,6 18 36 0,0
19.10.2018 16:00:00 12,9 7,9 - - 18 10 - - WNW 1022,2 19 60 0,0
19.10.2018 15:00:00 12,1 10,2 - - 16 9 - - W 1021,7 26 0 0,0
19.10.2018 14:00:00 11,7 9,9 - - 16 9 - - W 1021,3 28 6 0,0
19.10.2018 13:00:00 10,8 9,8 - - 24 13 - - WSW 1020,8 13 0 0,0
19.10.2018 12:00:00 10,2 9,4 - - 29 16 46 25 SW 1020,7 8 0 0,0
19.10.2018 11:00:00 9,6 8,6 - - 28 15 - - SW 1020,6 8 0 0,0
19.10.2018 10:00:00 10,1 8,0 11,2 12,0 18 10 - - SW 1020,6 15 0 0,0
19.10.2018 09:00:00 9,2 6,7 - - 9 5 - - SSW 1020,6 21 0 0,0
19.10.2018 08:00:00 8,1 5,6 - - 5 3 - - SE 1020,8 27 0 0,0
19.10.2018 07:00:00 8,7 5,9 - - 15 8 - - S 1020,7 40 0 0,0
19.10.2018 06:00:00 7,5 5,5 - - 13 7 - - SSE 1020,8 35 0 0,0
19.10.2018 05:00:00 7,2 5,3 - - 9 5 - - S 1021,9 30 0 0,0
19.10.2018 04:00:00 7,0 5,4 - - 8 4 - - SE 1022,8 30 0 0,0
19.10.2018 03:00:00 6,7 5,2 - - 5 3 - - SE 1023,4 30 0 0,0
19.10.2018 02:00:00 6,5 5,3 - - 11 6 - - SSW 1023,8 24 0 0,0
19.10.2018 01:00:00 5,8 5,2 - - 8 4 - - ESE 1024,2 24 - 0,0
19.10.2018 00:00:00 5,6 4,9 - - 5 3 - - SE 1025,0 16 0 0,0
18.10.2018 23:00:00 5,8 5,1 - - 2 1 - - SSW 1025,6 23 0 0,0
18.10.2018 22:00:00 6,2 5,2 - - 4 2 - - SE 1025,8 28 0 0,0
18.10.2018 21:00:00 6,6 5,0 - - 4 2 - - SE 1026,0 35 0 0,0
18.10.2018 20:00:00 6,8 5,1 - - 4 2 - - SSW 1026,2 45 0 0,0
18.10.2018 19:00:00 7,3 4,5 - - 2 1 - - S 1026,4 30 0 0,0
18.10.2018 18:00:00 9,5 6,0 - - 8 4 - - SSW 1026,6 30 0 0,0
18.10.2018 17:00:00 11,1 6,3 - - 11 6 - - SSW 1026,7 35 48 0,0
18.10.2018 16:00:00 12,4 6,0 - - 16 9 - - SSW 1027,0 27 12 0,0
18.10.2018 15:00:00 11,4 7,0 - - 8 4 - - SW 1027,3 35 0 0,0
18.10.2018 14:00:00 10,7 7,2 - - 13 7 - - SW 1027,9 20 0 0,0
18.10.2018 13:00:00 10,3 8,2 - - 8 4 - - S 1028,2 15 24 0,0
18.10.2018 12:00:00 7,9 6,7 - - 5 3 - - S 1028,9 18 0 0,0
18.10.2018 11:00:00 6,7 6,3 - - 4 2 - - S 1029,1 14 0 0,0
18.10.2018 10:00:00 5,7 5,7 11,4 12,2 4 2 - - SSE 1029,1 12 54 0,0
18.10.2018 09:00:00 3,6 3,6 - - 8 4 - - SSE 1028,9 3,6 6 0,0
18.10.2018 08:00:00 3,4 3,2 - - 4 2 - - S 1028,7 6 0 0,0
18.10.2018 07:00:00 3,7 3,5 - - 4 2 - - SE 1028,3 7 0 0,0
18.10.2018 06:00:00 4,0 3,8 - - 4 2 - - S 1027,9 9 0 0,0

tt = Température de l'air
td = dewpoint
tt -20cm = Température de l'air -20cm
tt -100cm = Température de l'air -100cm
ff = Vitesse du vent
fx = gusts
dd = Direction du vent
ppp = reduced air pressure
vv = visibility
sd = Ensoleillement
rr = Quantités de précipitations

stations d'obs. à proximité